Location: *
(29.1167°S, 130.0000°E)
Time: 06:39:07
(UTC+00:00)

Cosmos 2219 Rocket - Pass Details

Date: 21 July 2019
Orbit: 829 x 846 km, 71.0° (Epoch: 23 August)

Event Time Altitude Azimuth Distance (km) Brightness Sun altitude
Rises 10:05:56 0° 182° (S) 3,419 5.2 -18.1°
Reaches altitude 10° 10:09:01 10° 166° (SSE) 2,480 4.4 -18.7°
Enters shadow 10:09:53 13° 159° (SSE) 2,262 4.1 -18.9°
